{"data":{"norad_id":48452,"intl_designator":"2021-040AA","name":"STARLINK-2703","alt_names":[],"object_type":"PAYLOAD","status":"ACTIVE","operator":null,"country":"US","launch_date":"2021-05-09","launch_site_code":"AFETR","launch_vehicle":null,"mission":null,"orbit_class":"UNKNOWN","rcs_meters":null,"size_class":null,"mass_kg":null,"dimensions":null,"purposes":["comms"],"wikipedia_slug":null,"has_3d_model":false,"image_url":null,"decayed_at":null,"tle_current":{"epoch":"2026-05-25T03:09:30.595968Z","epoch_age_seconds":59803,"freshness":"FRESH","line1":"1 48452U 21040AA  26145.13160412  .00000485  00000+0  27380-4 0  9996","line2":"2 48452  53.1583 182.5925 0001169  81.1873 278.9260 15.31699425278395","mean_motion":15.31699425,"eccentricity":0.0001169,"inclination_deg":53.1583,"raan_deg":182.5925,"arg_perigee_deg":81.1873,"mean_anomaly_deg":278.926,"bstar":2.738e-5,"rev_number":27839,"period_min":94.013223253642,"perigee_km":469.94107535015,"apogee_km":471.54234319238,"semimajor_km":6848.8787092713,"source":"CELESTRAK","updated_at":"2026-05-25T13:38:16.717725Z"}}}